User: anonymous   Login
Location: Unspecified
(0.0000°N, 0.0000°E)
Time: 10:15:31
(UTC+02:00)
Language:

H-2A R/B - Orbit

View from above orbital plane
View from above orbital plane
View from above satellite
View from above satellite

Ground track
Ground track

The orbit data is extracted from the following two-line orbital elements,

1 26899U 01038B   16122.55810840  .00000940  00000-0  24025-3 0  9998
2 26899  27.8888 232.3486 7131547 275.4994  14.2060  2.47068028126327
Epoch (UTC): 01 May 2016 13:23:40
Eccentricity: 0.7131547
inclination: 27.8888°
perigee height: 252 km
apogee height: 33218 km
right ascension of ascending node: 232.3486°
argument of perigee: 275.4994°
revolutions per day: 2.47068028
mean anomaly at epoch: 14.2060°
orbit number at epoch: 12632

The dashed part of the orbit path shows where the satellite is in the earth's shadow,  

DLR